CZ-4B DEB (49074 NORAD) Tracking and Keplerian Element Data

This shows tracking and keplerian element data for the satellite.

Feedback or suggestion? Click here.




ElementValue
Catalog49074
NameCZ-4B DEB
Epoch Orbit425
Epoch Day259.06006967
Epoch Year2021
RAAN262.6506
Inclination97.456
Eccentricity0.0015864
Argument of Perigee155.4175
Mean Anonmoly204.7819
Mean Motion15.18338843
Decay Rate3.608E-05
L11 49074U 21074D 21259.06006967 .00003608 00000-0 17851-3 0 9993
L22 49074 97.4560 262.6506 0015864 155.4175 204.7819 15.18338843 4252



Live tracking and technical data element details for CZ-4B DEB (NORAD 49074). CZ-4B DEB can be tracked NOW for your location showing map with azimuth and elevation plus other details from your city location.







IsCatalogInMostPopularTable: catalog: 49074, numindb: 45
Update: records affected: 1



GetName: 49074 CZ-4B DEB

Hit Count: updated at: Sun, 28 May 2023 07:33:29 GMT